Theta_e
313 318 321 322 321 321 320 317 318 320 320 323 327 330 324 321 322 322 322 313 306 313 320 317 315 315 314 313 311 311 311 309 310 311 312 314 315 316 317 318 318 318 319 319 318 317 317 317 316 315 315 314 314 313 313 313 312 312 311 311 312 312 313 314 313 313 313 314 319 320 320 324 327 323 323 324 321 323 327 326 324 323 321 322 324 325
314 320 322 319 317 317 319 318 319 318 320 325 323 321 321 321 323 320 318 314 308 313 321 318 316 316 314 313 311 309 309 309 310 310 312 314 315 316 317 317 318 318 318 318 318 318 317 317 317 316 315 315 314 315 314 313 312 312 311 311 311 312 313 313 313 313 312 314 315 314 318 323 323 322 324 326 325 325 327 325 324 323 321 323 325 324
318 321 320 313 309 312 316 316 319 319 321 327 322 318 322 322 321 318 314 313 311 312 321 321 317 315 314 313 312 310 309 311 312 313 314 315 314 315 316 317 317 318 318 318 317 318 317 317 317 316 315 315 315 315 314 313 313 312 311 311 311 312 312 313 313 312 313 314 314 317 321 321 319 320 323 325 326 327 326 324 324 322 319 321 325 324
320 322 317 307 307 316 318 315 318 319 320 324 322 320 323 321 319 318 315 314 313 312 317 319 315 313 313 313 313 311 310 311 312 313 314 314 314 315 317 316 316 317 317 318 317 317 316 316 317 316 316 316 315 315 314 314 313 312 312 311 311 311 312 313 312 312 316 315 316 321 325 323 321 320 320 321 323 325 325 324 323 320 318 322 323 323
320 317 309 305 310 320 320 315 317 318 319 321 320 321 323 322 319 318 317 316 316 314 313 315 318 319 318 318 319 315 311 311 312 313 313 314 315 316 317 317 317 318 318 318 318 317 317 316 316 316 316 315 315 315 314 314 314 313 312 311 311 311 311 313 312 312 315 315 317 323 325 324 322 322 321 320 320 323 324 324 322 319 319 322 322 322
319 311 308 312 315 319 321 319 319 320 321 322 321 320 320 321 320 317 319 318 321 323 315 313 321 327 327 325 324 322 318 315 313 312 313 316 317 316 316 317 317 318 318 318 318 318 318 317 317 316 315 315 315 315 315 314 313 312 311 310 310 311 311 312 312 312 313 314 317 321 323 321 321 324 322 319 320 324 323 322 321 319 319 321 321 319
316 309 312 321 319 317 319 319 320 318 320 322 319 318 316 316 317 317 318 318 323 326 315 312 319 323 325 322 319 322 322 318 315 312 311 314 316 316 316 317 317 318 317 318 318 317 318 317 317 317 316 316 315 315 314 313 312 311 310 310 310 310 311 311 312 311 313 316 319 319 319 317 317 320 320 318 321 323 322 320 318 317 318 319 319 316
314 312 314 320 321 319 317 320 320 315 320 324 317 316 316 315 319 319 318 318 322 322 316 315 319 320 321 319 319 323 323 320 319 317 313 312 315 316 317 317 317 318 317 318 318 318 318 318 318 318 317 317 315 314 313 313 312 311 310 310 309 310 311 311 311 311 312 315 317 318 316 315 315 316 317 320 322 322 319 318 316 315 317 318 317 316
312 318 317 316 319 319 319 324 320 314 320 321 312 314 317 318 321 321 320 320 319 320 319 318 318 320 324 323 323 323 320 319 320 320 316 312 314 315 316 318 317 318 318 318 318 318 319 318 318 318 317 316 314 313 312 312 312 311 310 310 309 310 311 311 311 311 312 312 313 315 316 316 317 318 319 322 322 319 318 316 315 315 317 317 316 317
310 315 314 315 319 319 319 317 313 315 319 313 307 312 315 316 319 320 323 323 322 323 320 318 318 318 323 328 326 321 319 321 319 319 316 311 314 316 317 318 317 318 318 318 319 319 319 319 318 318 317 315 314 312 312 311 311 310 310 310 310 310 310 311 311 310 312 312 313 316 318 318 319 321 321 321 320 319 318 316 316 316 317 315 316 318
309 309 310 313 316 314 314 310 306 312 312 308 313 320 319 320 320 321 322 321 324 326 319 318 321 317 320 328 327 319 319 324 321 321 321 314 315 318 318 319 318 318 318 318 319 318 318 318 318 318 317 316 314 313 312 311 311 310 310 309 310 310 310 310 310 310 311 311 312 316 319 319 320 321 321 319 318 319 318 316 315 316 316 315 315 318
310 313 313 312 311 309 312 312 308 307 306 311 325 327 321 324 321 321 323 321 324 325 318 316 317 316 320 325 325 319 317 320 320 323 325 319 317 317 318 318 318 318 318 318 318 318 318 318 318 318 317 316 315 314 313 312 311 310 310 309 309 309 310 310 310 310 311 311 311 315 318 319 320 321 319 318 318 319 318 315 314 316 316 314 315 317
314 317 314 310 310 311 318 320 313 310 310 317 326 324 320 323 321 321 324 323 324 321 314 313 315 316 318 319 319 318 315 315 313 315 318 316 315 317 317 317 317 318 318 318 318 318 318 317 317 317 316 316 315 314 314 312 311 311 310 309 309 309 310 310 310 310 311 311 311 314 317 318 318 318 317 317 318 319 318 315 314 316 316 314 315 316
317 317 312 313 313 312 317 320 318 317 316 318 322 322 322 322 321 323 323 319 320 318 312 310 314 317 318 319 319 317 315 314 312 311 313 313 315 317 317 316 317 317 318 318 318 318 317 317 316 315 315 315 315 314 313 312 312 311 310 309 309 309 310 310 310 310 311 311 311 312 315 315 315 315 316 318 318 317 317 314 314 316 315 314 315 316
317 317 315 315 315 314 315 316 319 320 316 317 319 319 322 324 323 324 325 323 321 321 315 310 314 322 323 323 320 314 311 312 312 313 313 312 314 315 315 316 317 317 318 318 318 318 317 316 316 315 315 315 314 314 313 312 311 311 310 309 309 309 310 311 310 311 312 311 310 312 315 315 315 316 318 317 316 316 315 314 313 315 315 313 314 315
314 318 318 312 311 313 314 313 316 318 316 316 318 318 319 322 322 318 317 319 320 322 321 316 318 323 322 321 317 312 312 313 311 311 312 313 314 314 314 317 317 318 318 318 318 318 317 316 316 315 315 315 314 313 313 312 312 311 311 310 309 309 310 311 311 311 311 310 310 312 315 315 315 317 317 316 316 315 313 313 313 315 315 313 313 314
315 318 315 310 310 312 312 312 312 314 316 316 316 318 317 317 323 321 313 310 313 316 320 320 320 320 319 319 318 317 321 320 313 311 311 312 315 314 315 318 318 318 318 318 318 318 317 317 316 316 316 315 314 314 314 313 312 312 311 310 309 309 309 311 311 311 310 309 310 313 315 316 316 317 316 315 315 314 312 313 314 315 314 313 313 312
318 319 315 311 314 311 308 310 310 308 313 318 318 318 314 313 320 324 318 317 318 319 322 321 319 318 318 320 320 318 318 319 319 317 313 312 313 314 316 318 318 318 318 317 318 318 318 317 316 316 316 315 315 314 314 313 312 311 311 310 310 309 309 310 311 311 311 310 311 313 316 317 316 316 315 315 314 312 312 314 314 314 314 313 313 310
316 317 316 311 313 312 308 312 315 310 309 315 317 315 316 319 321 320 320 321 322 321 325 325 319 316 317 320 321 318 319 322 321 319 317 314 312 313 316 318 318 317 317 318 318 318 318 318 317 317 316 316 315 315 314 313 312 311 311 311 310 310 309 309 310 311 311 310 311 313 316 316 315 313 314 314 313 312 313 314 312 313 314 313 312 308
314 315 318 311 309 312 312 314 319 316 311 311 313 311 315 321 321 320 320 320 320 321 324 326 323 319 318 322 323 319 322 327 323 323 324 317 312 314 317 318 318 317 317 318 318 318 318 318 317 317 317 316 315 315 315 314 313 312 311 311 310 309 309 309 310 311 310 310 311 312 314 315 313 312 313 314 313 312 313 313 311 311 313 312 311 307
314 313 316 313 309 313 317 316 316 317 315 313 316 315 315 317 318 319 319 317 321 325 325 325 323 318 318 321 322 320 321 322 322 327 326 316 313 317 319 317 318 318 318 318 318 318 318 317 317 317 317 316 316 315 315 314 314 312 311 311 310 309 309 309 309 310 310 310 311 311 312 314 314 313 312 312 311 311 313 312 311 311 312 312 310 306
315 315 318 317 314 315 318 316 313 315 316 315 315 316 316 316 316 318 317 315 319 321 322 323 320 317 320 320 319 322 324 319 316 319 317 313 315 318 318 317 318 318 318 319 318 318 318 317 317 317 317 316 316 316 315 315 314 313 312 311 310 310 309 309 309 309 310 310 310 311 311 312 314 313 312 310 310 311 313 312 311 311 311 311 309 305
314 318 320 319 318 318 316 311 307 311 316 315 315 316 315 315 316 318 319 318 318 317 316 318 320 319 320 320 319 319 318 313 311 309 310 313 316 318 318 317 318 318 318 318 318 318 318 318 318 317 317 317 316 316 316 315 315 314 313 311 311 310 310 309 309 309 309 309 310 311 311 311 313 313 312 311 310 311 312 312 311 311 311 310 308 304
313 317 318 316 319 320 316 310 306 308 313 315 315 315 315 315 317 320 321 318 318 319 318 318 321 319 316 317 312 308 307 308 308 309 309 313 317 318 317 316 317 318 318 318 318 318 318 317 317 317 317 317 316 316 315 315 315 315 313 312 311 310 310 309 309 308 309 310 310 310 310 311 312 313 312 311 310 310 311 311 310 310 310 309 307 303
314 318 318 315 319 320 316 315 313 311 313 316 318 317 315 315 317 318 318 316 317 321 321 320 320 318 318 318 311 308 311 310 308 309 310 313 317 317 316 316 316 317 318 318 318 318 318 317 317 317 317 316 316 316 315 315 315 314 314 313 312 311 309 309 309 308 309 309 310 310 310 311 312 312 311 311 311 310 310 310 309 310 310 308 305 301
316 319 316 315 318 318 316 318 318 317 315 315 319 319 315 315 317 316 317 317 318 319 319 318 318 316 318 319 316 315 319 317 312 311 312 313 316 317 317 317 317 317 318 318 318 317 317 317 317 317 317 316 316 316 315 315 315 314 314 313 312 310 309 309 309 308 309 309 309 310 310 311 311 310 310 311 311 310 310 310 309 310 310 307 304 300
320 320 316 315 317 317 316 316 317 319 318 316 318 318 314 314 315 316 317 317 318 318 318 317 317 317 318 319 320 319 320 324 321 313 311 314 317 317 317 317 317 318 318 317 318 318 317 317 317 317 317 316 316 316 315 315 315 314 314 313 312 310 309 308 308 308 308 309 309 309 310 310 310 309 309 310 311 310 310 309 309 310 309 307 304 300
320 319 317 318 317 316 317 316 317 320 320 318 318 317 315 314 314 316 317 317 317 318 318 317 316 317 317 317 322 323 323 327 322 311 310 315 317 317 317 317 318 318 317 317 317 318 318 318 317 317 317 317 316 315 315 315 315 314 313 313 311 310 309 308 308 308 308 308 309 309 309 309 309 308 308 308 310 310 310 309 309 309 309 307 304 300
319 317 317 319 317 316 317 316 317 320 319 317 317 317 315 314 314 315 316 316 317 317 317 317 317 317 316 315 318 320 319 319 317 314 315 316 316 316 316 317 318 318 317 317 317 317 318 318 317 317 317 316 316 316 316 316 315 314 313 312 311 310 309 308 308 307 307 307 308 308 308 307 307 308 308 308 308 310 310 309 309 309 309 307 304 300
317 317 316 318 317 317 317 316 317 318 317 316 317 316 315 314 314 315 315 315 316 317 317 317 317 317 316 315 316 316 314 314 314 315 315 314 315 316 316 317 317 318 317 317 317 317 318 317 317 317 316 316 316 316 316 316 315 314 313 312 311 311 309 308 308 307 307 307 307 307 307 307 306 306 307 307 307 308 310 310 309 309 308 306 303 300
313 317 317 316 317 317 316 316 317 316 317 317 317 317 315 314 314 314 315 315 316 316 316 316 317 317 315 315 315 314 313 313 314 314 313 314 316 316 317 317 317 317 317 317 317 318 317 317 316 316 316 316 316 316 316 316 315 314 313 312 311 310 309 308 307 307 306 306 306 306 306 306 306 306 306 306 307 308 309 309 309 308 307 305 303 299
312 316 318 316 317 317 317 317 317 316 316 315 316 317 316 315 314 313 314 315 315 316 316 316 317 317 315 316 315 314 313 312 311 312 313 315 317 317 317 317 316 316 317 317 317 318 317 316 316 316 316 316 316 316 316 316 315 314 313 312 311 310 309 308 307 307 306 306 306 306 306 306 306 305 305 305 306 307 308 308 308 307 306 304 302 298
313 314 316 316 317 318 317 317 317 316 317 317 316 316 316 315 314 314 314 314 314 315 316 316 316 315 316 318 317 317 317 313 310 312 314 315 316 317 317 316 316 316 317 317 317 317 316 315 315 315 315 315 315 316 315 315 314 314 313 312 311 310 309 308 307 306 306 305 305 305 305 305 305 305 305 305 305 306 307 307 307 306 304 302 300 298
314 315 315 315 317 319 317 317 317 317 319 320 319 317 317 316 315 315 315 314 313 314 314 315 316 315 315 317 316 316 317 315 313 313 315 316 316 316 316 315 315 316 316 316 316 315 315 315 315 315 315 315 315 315 315 314 313 313 312 311 310 309 308 307 306 305 304 304 304 303 303 303 304 304 305 305 306 306 306 307 307 306 304 301 299 297
313 314 315 315 316 318 317 317 318 320 319 320 322 321 318 316 316 316 315 315 313 313 314 314 314 315 314 315 314 314 314 314 314 314 315 316 316 315 315 315 315 316 315 315 315 314 314 314 314 313 313 314 314 314 314 314 313 312 312 311 309 308 306 305 304 303 303 302 302 302 302 301 302 303 304 305 306 306 306 306 306 306 305 302 298 296
314 313 315 315 316 317 318 318 319 321 319 320 323 323 318 316 317 316 316 315 314 313 313 313 313 314 314 313 313 313 313 313 313 313 313 314 314 314 314 315 315 315 314 314 314 314 314 313 313 312 312 313 313 313 313 312 312 311 311 310 308 306 305 304 303 302 302 302 301 301 301 301 301 301 302 303 304 304 305 305 305 305 304 302 299 296
314 314 314 315 316 316 318 318 318 320 320 319 320 320 317 316 317 317 317 316 314 313 313 313 313 314 313 312 312 313 313 312 312 312 312 313 314 314 314 314 314 314 314 314 314 313 313 313 313 312 312 312 312 312 312 312 311 311 310 309 307 305 304 304 303 302 302 301 301 300 300 300 300 300 301 302 303 304 304 304 304 303 302 301 299 296
313 313 314 316 316 316 317 318 318 319 320 319 318 317 315 314 314 315 317 318 317 314 312 312 313 314 313 313 312 311 312 313 314 313 311 313 314 314 314 314 314 314 314 313 313 313 313 313 313 312 312 312 311 311 311 311 310 309 309 308 306 305 304 303 302 302 301 300 300 299 299 299 299 299 299 300 301 302 302 303 303 302 301 300 299 297
312 312 313 315 315 316 317 318 319 320 320 319 320 320 315 311 311 313 316 319 318 315 312 312 314 314 313 312 311 311 313 315 315 313 312 313 314 313 314 314 313 313 313 313 313 313 313 313 312 312 312 311 310 310 309 309 308 307 307 306 305 304 303 302 301 300 299 299 299 298 298 298 298 298 298 298 299 300 300 301 300 300 299 298 297 297
313 313 314 314 315 316 316 317 318 318 319 320 320 316 311 310 312 316 319 320 317 314 312 311 312 313 312 311 311 312 314 315 315 313 312 313 313 313 313 313 312 312 312 312 312 312 312 312 311 310 309 309 308 308 307 307 306 306 305 304 303 302 301 300 299 299 298 298 298 298 298 297 297 298 298 298 298 298 298 298 298 298 297 297 296 296
313 314 314 315 316 316 316 318 318 317 320 323 316 308 308 312 315 319 321 318 314 313 313 312 312 314 313 311 310 312 313 313 313 312 312 312 313 313 312 312 312 312 312 311 311 311 310 310 309 308 308 307 307 306 306 305 305 304 303 302 301 300 299 299 298 298 298 298 297 297 297 297 297 297 297 297 297 297 296 296 296 295 295 294 294 294
314 314 315 315 316 315 315 317 317 316 320 320 311 306 309 316 319 319 317 314 313 314 314 313 314 315 314 312 310 312 312 312 311 311 311 312 312 312 312 312 311 311 310 310 310 309 308 308 308 307 307 306 305 305 305 305 304 303 302 301 300 299 299 298 298 297 297 297 297 297 296 296 296 296 296 296 295 295 295 294 294 293 293 293 293 294
315 315 315 315 315 316 316 316 317 318 315 312 310 310 312 317 320 317 313 312 313 314 314 314 314 315 314 312 312 313 312 311 311 310 310 311 311 311 311 310 310 310 309 309 308 308 307 307 307 306 306 306 306 306 306 305 305 304 303 302 301 301 300 300 299 299 298 298 297 297 296 296 296 295 295 295 295 295 295 295 296 296 296 296 296 296
314 314 315 315 315 316 315 316 319 320 313 310 313 315 314 315 316 314 312 312 312 312 313 314 314 314 314 314 314 313 312 311 311 310 310 310 310 310 310 309 309 308 308 307 308 307 307 307 307 307 307 306 306 306 306 305 305 305 304 304 303 303 303 302 302 301 300 299 299 298 297 297 296 296 296 296 297 297 298 298 298 297 297 297 297 297
313 313 314 315 314 314 315 316 318 316 310 309 313 314 312 313 314 312 313 313 312 312 313 313 314 314 314 314 314 313 312 311 311 310 310 310 309 309 309 308 307 307 307 307 307 307 306 307 307 307 307 307 306 305 305 303 303 304 304 304 303 303 303 303 302 301 301 300 299 299 298 298 297 297 297 297 297 298 297 297 297 297 297 297 296 296
312 310 311 315 315 314 313 312 313 311 307 307 311 312 311 312 312 312 313 313 313 313 313 313 314 315 314 313 313 312 312 311 310 310 309 309 308 308 307 307 307 306 307 307 307 307 306 306 307 308 308 307 306 305 304 303 302 303 303 303 303 302 302 302 301 301 301 300 300 299 299 299 298 298 297 297 297 296 296 296 296 295 295 295 295 294
311 308 309 314 315 314 315 315 314 312 309 308 309 309 310 311 311 311 312 313 313 313 312 312 313 314 313 312 312 312 313 311 310 309 309 308 307 307 307 307 307 306 306 307 307 306 306 307 307 307 307 307 305 304 304 303 302 302 302 302 301 301 300 300 300 300 300 299 299 298 298 297 297 297 296 296 295 295 295 294 294 294 294 293 293 292
310 307 308 312 312 313 316 315 311 307 307 308 309 309 310 311 311 309 310 312 312 312 312 312 312 313 312 312 311 311 311 310 309 309 308 307 307 307 307 306 306 306 306 306 306 306 306 307 307 306 306 305 304 303 303 302 302 301 300 300 299 299 298 298 298 298 297 297 297 296 296 295 295 295 295 294 294 294 293 293 293 292 292 291 291 291
307 306 307 309 310 311 313 312 307 305 307 308 309 309 310 311 311 310 310 311 311 311 311 311 311 312 311 311 311 310 310 310 309 309 308 307 307 307 306 306 305 305 305 305 305 305 305 306 306 305 304 303 302 302 301 300 299 298 297 296 296 295 295 295 295 295 295 294 294 294 293 293 293 293 292 292 292 292 291 291 291 290 290 290 290 290
305 307 308 308 308 310 312 311 309 309 310 310 308 308 310 310 310 310 310 310 310 310 309 309 310 310 309 309 309 309 309 309 309 308 307 307 307 306 306 305 305 305 305 305 305 304 304 304 304 303 302 301 300 299 298 297 296 295 294 293 293 293 293 292 292 292 292 292 292 291 291 291 291 291 291 291 290 290 290 290 290 290 290 290 290 290
306 308 309 308 309 310 311 310 308 308 309 310 309 309 309 309 309 308 308 308 309 308 308 308 308 309 309 308 308 308 308 308 308 307 307 307 306 306 305 305 305 305 305 304 303 302 301 301 300 300 300 298 297 296 295 294 293 293 292 292 292 291 291 291 291 291 291 291 291 291 290 290 290 290 290 290 290 290 290 290 290 290 290 290 290 290
Wind_Speed
4 3 2 5 6 7 8 6 6 5 6 7 5 4 3 3 4 4 3 5 0 2 6 6 7 11 14 12 16 21 17 15 21 25 30 32 33 34 34 34 34 34 33 31 30 29 28 29 29 30 30 31 31 30 30 28 28 29 30 29 28 27 25 23 22 21 21 21 24 28 25 24 24 21 21 21 19 23 24 21 20 21 20 21 22 20
4 3 6 7 7 7 6 6 8 6 6 5 5 3 0 3 6 5 2 4 1 2 5 3 5 12 14 13 16 17 12 15 24 26 30 34 34 35 36 37 37 36 35 33 33 33 32 31 31 32 32 32 32 31 30 29 29 29 30 30 29 28 26 24 23 22 22 21 22 23 22 24 25 23 23 22 22 25 24 17 17 19 20 20 23 21
2 4 7 5 8 7 5 6 7 6 5 4 3 2 2 3 4 5 2 4 1 2 4 4 5 12 14 13 17 18 15 21 29 30 33 35 34 36 38 39 39 38 38 37 36 36 35 34 33 33 34 34 33 32 31 30 30 30 30 31 30 29 27 26 24 23 22 21 20 20 21 22 23 22 21 21 24 25 22 20 21 22 22 22 22 22
2 6 6 7 12 9 6 4 7 6 4 2 4 4 2 3 1 3 3 3 1 1 3 4 5 9 11 11 15 19 19 24 30 31 35 36 36 40 42 40 40 40 40 38 36 35 35 34 34 34 34 34 35 34 34 33 31 31 30 31 31 30 29 27 25 23 23 22 20 22 25 23 22 21 21 23 26 26 25 25 24 22 23 27 25 24
5 5 2 6 7 7 7 4 6 6 1 2 4 5 4 4 4 4 3 3 2 2 1 2 6 7 6 8 10 10 10 16 22 23 27 31 33 36 37 37 37 36 36 35 34 33 32 31 31 31 32 33 35 35 35 34 33 32 31 32 32 30 29 28 26 24 25 24 23 26 28 26 24 25 26 26 29 30 27 25 22 20 24 27 26 26
7 5 6 7 4 6 8 4 5 7 3 4 4 8 9 7 5 3 3 5 3 4 2 0 4 6 4 6 9 6 6 11 14 14 21 29 30 30 32 34 34 33 32 32 31 31 30 29 28 28 29 31 33 34 34 34 34 33 32 32 31 30 29 29 27 25 26 25 26 29 31 30 30 31 29 26 28 29 25 23 23 23 25 26 26 26
3 3 5 6 5 6 6 2 6 7 5 2 4 7 8 5 5 3 1 2 1 3 3 2 2 6 6 8 11 6 8 12 11 12 20 30 33 31 32 34 32 30 30 29 29 28 28 26 26 26 25 26 28 30 32 34 35 33 33 32 31 30 30 29 28 27 26 27 29 30 30 31 31 32 29 27 27 26 23 22 24 25 27 27 27 25
4 3 3 5 6 6 5 3 6 8 7 2 3 4 6 7 6 5 5 3 3 3 3 2 3 4 6 8 9 4 7 11 11 12 16 25 32 32 31 30 28 26 24 22 21 20 19 19 20 21 21 23 24 26 31 33 34 33 33 32 31 30 30 29 29 28 27 29 32 31 29 28 28 27 27 28 28 25 24 23 22 24 27 29 28 26
3 6 6 7 5 4 5 4 8 11 6 4 3 6 6 6 5 5 5 3 1 3 4 2 4 3 6 7 5 2 5 10 12 13 13 19 26 25 22 20 17 16 13 11 9 8 10 11 12 15 16 19 21 25 29 30 31 32 32 32 32 31 31 29 28 28 28 29 29 29 29 27 26 27 27 28 27 26 26 24 22 23 26 29 28 27
1 3 6 7 5 5 4 1 5 8 4 4 6 7 6 5 5 5 4 3 2 3 4 6 6 3 6 6 3 1 3 8 12 11 10 17 20 16 13 11 8 7 5 4 4 5 7 7 8 10 12 16 19 23 26 28 29 31 32 33 33 32 31 29 28 28 28 29 28 28 29 28 28 30 31 28 27 27 26 23 23 24 26 28 28 28
1 1 2 4 4 5 6 5 3 4 7 10 7 6 7 5 4 3 2 4 3 4 4 8 10 5 4 6 4 5 5 6 7 7 9 13 15 12 9 7 5 4 3 4 5 7 8 8 8 9 10 13 17 21 25 27 28 30 31 33 33 33 31 30 29 28 28 28 29 30 31 31 31 32 31 28 27 27 25 23 23 25 26 27 28 29
2 1 1 3 5 8 9 6 6 6 8 8 4 4 4 3 3 4 4 3 2 5 3 5 5 3 5 7 4 6 7 5 6 6 8 9 14 16 12 7 7 7 7 8 10 11 11 11 11 10 10 12 15 19 23 26 27 28 30 32 33 33 32 31 30 29 28 28 30 31 32 33 33 33 31 28 27 28 26 22 24 27 28 28 29 30
1 4 2 1 5 8 7 5 5 4 2 4 4 6 4 2 3 3 3 0 3 6 3 2 1 1 7 9 9 12 13 11 10 12 14 14 20 24 18 12 12 13 15 17 18 18 18 17 15 14 13 13 15 18 21 24 26 27 29 31 33 34 33 32 30 29 29 29 30 32 33 34 34 33 31 29 28 28 25 22 24 29 30 29 31 32
3 5 1 3 3 8 9 6 3 2 2 5 5 6 4 2 1 3 3 1 4 5 2 3 2 2 5 7 11 17 19 18 17 20 25 24 27 31 27 23 22 22 22 22 22 21 19 18 16 15 15 15 16 17 19 22 24 26 28 30 33 34 34 33 31 30 30 29 29 30 31 32 32 31 30 29 28 25 21 20 24 30 31 30 31 32
5 6 5 6 4 11 12 7 7 6 5 5 4 5 5 5 5 5 3 3 5 4 2 2 2 4 4 4 8 14 18 22 22 24 27 29 33 35 33 32 30 27 23 21 19 18 16 15 14 14 14 14 15 16 19 21 23 25 27 30 32 34 35 34 32 30 30 30 29 30 31 30 30 30 29 29 27 22 20 20 24 29 30 30 31 30
4 7 6 2 2 13 12 5 7 8 3 3 2 4 4 5 5 2 3 5 3 3 3 2 4 5 5 6 9 10 13 17 19 21 22 27 31 30 31 31 27 23 20 18 16 13 11 10 10 11 11 12 14 15 18 19 21 23 25 28 31 33 35 34 32 30 30 30 29 31 31 30 30 30 31 30 26 22 21 22 25 29 29 28 29 30
3 5 5 3 1 6 5 3 5 5 3 2 3 4 4 3 6 4 2 1 3 2 4 2 5 6 3 7 10 8 9 10 11 14 17 23 23 20 24 25 22 20 17 12 9 6 5 5 5 7 8 10 12 13 15 16 18 20 22 26 29 32 34 34 33 30 29 30 30 30 32 32 31 31 31 29 25 23 23 24 26 28 28 28 28 30
5 3 5 2 1 3 1 3 3 2 4 5 4 6 3 2 4 4 2 2 2 3 5 2 6 6 3 5 6 4 8 11 10 11 15 18 18 19 25 25 21 18 11 5 3 2 0 0 1 3 5 7 9 10 12 14 16 18 21 24 26 30 33 34 33 32 30 30 30 30 32 33 31 30 30 29 26 25 26 26 27 28 29 28 28 31
4 2 5 1 2 3 2 3 2 4 3 5 4 4 4 2 2 2 3 3 2 3 4 4 5 5 5 6 4 4 9 12 13 12 10 12 18 24 28 25 19 11 3 2 3 3 3 3 1 1 2 4 6 8 10 12 15 18 20 22 24 27 30 32 33 33 32 31 31 31 32 32 30 30 31 29 26 27 28 27 27 28 30 29 29 32
3 3 4 2 1 1 3 2 5 2 2 3 2 2 2 2 4 3 3 4 4 3 3 4 5 5 7 7 7 10 12 12 12 9 7 13 21 22 20 16 11 5 2 5 6 6 5 4 2 1 1 3 4 6 9 11 15 17 19 22 24 26 29 32 34 34 33 32 31 32 33 33 31 31 31 28 26 28 29 27 26 28 29 30 30 33
3 3 4 2 3 1 3 5 8 9 6 4 3 4 3 1 2 1 1 2 4 3 2 2 5 9 7 5 9 12 11 11 10 8 9 14 18 15 11 10 7 4 3 4 4 4 3 3 2 1 1 2 4 6 8 10 13 16 19 22 24 26 28 31 34 35 35 33 32 32 33 34 33 33 32 30 29 31 31 28 27 28 29 30 31 34
3 3 4 2 1 4 5 4 5 9 9 8 8 8 9 6 4 3 3 1 2 3 4 3 5 11 6 5 8 10 8 9 11 12 11 12 13 11 10 10 8 5 4 3 1 3 4 3 1 1 2 3 4 6 8 10 12 15 18 21 23 25 28 31 33 35 35 34 33 33 33 34 35 34 33 31 31 33 32 30 30 30 30 32 33 36
4 3 3 3 4 6 4 2 1 4 4 4 4 5 6 6 6 6 5 4 2 1 2 3 3 11 5 4 7 7 6 7 10 12 12 14 13 11 11 11 9 8 6 4 1 3 7 8 6 5 4 5 7 7 8 10 12 14 17 19 22 25 27 29 32 34 34 34 33 33 33 34 36 36 33 32 33 34 33 30 31 31 31 32 35 37
4 2 3 4 3 2 3 3 2 1 2 3 4 2 3 4 5 4 4 4 3 3 2 3 4 11 5 1 4 6 6 8 10 14 17 18 15 12 13 12 9 9 7 3 1 4 8 9 9 9 9 10 11 9 9 10 12 14 17 19 21 24 26 28 30 32 34 34 33 33 33 34 36 37 35 33 34 34 34 32 32 32 31 32 36 39
7 3 5 4 3 3 3 2 1 1 1 3 4 3 5 6 5 4 1 2 1 6 8 5 7 11 4 3 3 4 5 8 10 12 15 16 15 15 13 10 8 8 6 2 4 6 8 10 12 15 16 15 14 12 11 11 13 15 17 19 21 23 25 27 30 32 33 34 34 34 34 35 37 37 36 35 35 34 34 33 33 33 32 33 37 40
8 3 6 7 6 7 6 5 4 3 2 2 3 6 8 9 10 5 3 3 5 10 9 6 10 12 4 4 4 5 3 7 10 10 12 15 16 15 13 10 9 7 5 6 8 8 9 12 15 19 20 19 17 15 14 13 14 15 17 20 22 23 25 27 29 31 33 34 35 36 36 36 37 37 37 36 36 35 34 34 35 34 33 33 37 41
3 2 7 10 10 12 11 9 4 6 6 6 8 10 9 10 12 9 5 6 10 11 7 8 15 17 12 4 5 7 5 5 9 9 12 16 18 16 15 12 10 9 9 10 11 11 15 19 20 22 22 22 20 18 17 16 16 17 18 20 22 23 25 27 29 31 33 35 36 36 37 38 38 37 36 37 36 35 34 34 35 35 33 33 37 41
3 3 8 9 12 13 14 13 6 7 8 12 13 13 12 12 12 12 12 14 13 10 11 15 16 17 20 13 8 9 8 7 8 10 14 18 19 18 17 13 12 14 15 13 12 14 20 25 26 25 24 23 22 20 19 18 18 18 18 20 22 24 25 27 29 31 33 35 36 37 37 37 38 36 36 36 36 35 35 35 36 36 34 34 36 41
3 6 9 9 13 14 16 14 7 7 7 8 11 14 15 15 15 16 19 21 18 12 13 18 15 16 22 19 12 12 11 10 12 15 18 20 20 18 17 15 15 18 20 19 16 17 21 26 28 26 24 23 23 21 20 20 21 20 18 19 22 23 24 26 28 30 32 34 36 36 36 36 36 36 36 36 36 36 35 35 36 36 35 34 36 39
4 8 11 10 12 14 17 16 9 9 7 5 8 11 13 16 19 22 23 24 22 17 16 21 20 19 22 18 11 14 18 19 20 19 18 18 19 19 20 22 23 25 27 26 24 24 25 26 25 23 23 23 23 21 20 21 22 20 18 19 21 22 23 25 28 30 32 33 34 36 36 35 34 35 36 37 37 36 36 36 37 37 35 34 35 38
3 6 7 7 7 11 17 19 13 9 7 9 9 7 10 15 19 23 22 19 17 17 20 22 20 21 21 12 9 16 21 21 19 19 19 21 23 26 29 33 33 32 32 31 29 30 30 26 22 21 22 23 22 21 20 22 22 20 18 18 19 20 22 24 26 29 31 32 33 35 36 36 34 34 35 35 36 37 37 37 36 35 34 34 35 39
4 3 1 4 5 10 15 18 15 9 6 9 10 10 15 19 18 17 15 14 15 17 19 18 15 20 16 6 8 15 16 14 16 19 24 29 32 34 37 39 39 36 33 33 33 33 30 24 21 21 21 21 21 21 21 22 22 19 17 16 16 18 20 22 25 27 30 31 32 34 35 36 35 35 34 33 34 36 37 35 34 34 34 35 36 39
6 4 3 4 5 10 15 15 10 7 6 9 13 20 25 22 15 10 11 16 20 17 14 13 15 21 15 6 8 13 9 10 16 23 28 33 36 39 41 41 39 36 35 35 34 31 27 23 22 21 20 21 22 22 23 23 22 18 14 14 15 17 19 21 24 26 28 30 32 33 34 35 36 35 34 32 31 33 35 35 34 33 33 33 35 38
7 8 7 5 4 8 12 6 4 5 9 10 13 20 24 21 17 16 19 24 22 16 14 15 16 22 18 9 11 13 10 15 24 30 34 36 37 38 39 37 35 34 35 33 30 27 25 24 23 22 21 22 23 24 25 24 21 16 14 15 16 18 20 21 23 25 27 29 30 32 33 34 35 35 34 33 31 31 32 34 34 32 31 31 34 37
8 9 8 5 4 6 5 3 4 8 10 8 7 9 13 17 22 24 25 25 21 18 18 19 21 23 20 15 16 19 21 27 32 35 36 37 37 35 33 33 33 31 30 28 26 27 27 25 24 23 23 24 24 25 25 23 19 16 15 15 16 18 19 20 21 22 24 27 29 30 31 32 33 33 33 34 34 32 32 33 33 31 30 31 33 36
9 8 6 4 5 4 3 5 8 7 3 4 7 5 5 10 15 17 19 21 20 18 18 22 27 27 21 20 24 28 29 28 29 33 35 34 33 31 30 31 30 28 28 27 27 28 25 23 22 21 21 22 22 23 22 19 17 15 14 15 15 16 17 17 17 19 21 23 24 26 27 28 30 31 32 33 34 34 33 33 32 32 31 31 33 35
9 8 5 5 6 5 6 8 8 7 6 8 13 9 5 6 10 12 12 17 18 19 21 23 26 25 20 22 30 32 26 19 20 26 28 27 30 31 31 31 29 28 28 26 24 22 19 18 18 17 17 18 18 18 17 16 15 14 13 14 14 14 14 14 14 15 16 17 18 19 21 23 25 27 29 31 32 32 33 32 32 32 32 32 34 35
10 9 7 7 6 6 8 9 7 7 8 13 18 12 8 11 13 12 10 13 14 19 25 24 21 20 18 20 28 26 15 10 13 13 13 20 29 30 28 28 26 23 21 18 17 16 14 14 14 14 14 15 15 15 15 14 14 13 12 12 12 12 12 12 12 12 12 13 14 15 17 19 21 23 25 27 28 29 30 30 30 30 30 31 32 32
13 10 9 8 6 6 8 8 8 8 8 12 15 9 10 18 15 9 5 13 15 16 24 22 17 18 19 22 25 17 7 7 13 12 11 18 22 19 18 19 17 15 14 13 13 13 13 13 12 11 11 12 12 12 12 12 11 10 10 10 11 11 11 11 11 10 10 10 11 12 13 14 16 18 19 21 23 25 26 26 26 26 26 26 27 27
13 9 9 9 8 9 9 8 7 6 6 8 7 4 11 22 20 11 7 14 10 9 20 23 19 22 29 30 22 11 7 12 15 14 14 15 15 14 14 14 12 12 13 13 13 14 13 11 9 9 8 9 9 9 9 9 9 9 10 11 12 12 12 12 11 10 10 9 9 9 9 10 11 12 13 14 16 18 20 20 20 19 19 18 18 18
8 7 8 10 10 12 13 11 7 4 6 6 3 6 16 20 15 8 11 9 3 9 21 28 29 33 37 30 18 12 17 25 22 16 12 12 12 13 13 12 13 14 14 14 13 12 11 10 9 8 8 8 8 9 9 10 11 12 13 14 15 15 15 14 14 13 12 11 11 10 9 9 8 8 8 9 10 12 13 13 12 12 11 11 12 12
7 6 6 8 9 10 10 10 7 5 6 5 6 13 18 13 6 9 7 3 5 12 20 28 34 37 33 24 20 23 27 29 25 19 16 15 14 14 14 14 15 14 13 12 12 10 10 11 11 11 11 12 12 12 13 14 15 16 17 17 17 17 17 17 17 16 15 14 14 13 12 11 11 10 10 9 9 10 10 10 10 10 10 10 10 11
8 6 6 7 7 7 8 8 8 6 4 10 14 9 7 6 4 6 7 5 7 13 19 24 29 29 25 20 23 27 26 23 22 21 20 20 18 16 16 14 13 13 12 12 12 13 13 13 14 14 15 16 16 16 16 17 18 18 18 19 19 19 19 19 19 19 18 17 17 16 16 15 14 13 12 12 11 11 11 10 10 10 10 10 10 11
5 6 5 5 6 7 7 7 7 3 6 18 17 6 12 19 12 6 9 11 10 13 16 18 18 18 19 19 20 22 23 22 21 19 18 18 17 16 15 14 14 14 15 15 16 16 16 16 17 18 18 19 19 19 19 19 19 19 19 19 19 20 20 20 20 20 19 19 18 18 17 16 16 15 14 14 14 13 12 12 11 11 11 12 12 13
9 9 6 5 6 6 6 6 6 4 10 24 24 16 22 33 28 14 10 12 12 12 12 12 11 12 16 19 18 18 20 21 20 19 16 15 15 15 15 15 16 17 18 18 19 18 18 18 19 20 21 21 21 21 21 20 19 18 19 19 19 20 20 20 20 20 19 19 18 18 17 17 17 16 15 15 15 14 13 13 13 13 13 13 14 14
7 6 5 4 4 6 6 4 5 5 9 21 29 23 19 26 32 27 18 12 10 9 9 10 12 15 19 21 20 18 19 19 19 18 16 14 15 16 18 18 19 20 20 20 21 21 21 21 21 21 20 21 21 21 21 21 19 18 18 18 18 18 18 18 18 18 17 17 17 16 16 16 16 16 16 15 14 14 13 13 13 13 12 12 12 12
3 2 2 3 4 7 7 5 8 12 11 16 26 27 20 20 26 28 20 12 9 12 15 15 17 19 21 23 22 21 20 19 18 18 17 17 18 19 20 21 21 21 21 21 22 22 23 22 21 20 19 19 20 20 20 20 19 17 16 17 17 17 16 16 16 16 16 16 16 16 16 15 15 15 15 14 14 13 13 12 12 12 11 11 10 10
3 4 3 4 5 6 6 5 7 11 10 12 19 24 22 20 21 21 20 19 22 26 26 26 27 27 26 23 22 21 19 18 18 18 18 19 20 21 22 23 23 23 23 23 23 23 23 21 19 19 18 18 20 19 18 18 18 17 16 16 16 17 17 17 16 16 16 16 16 16 16 15 15 15 14 14 14 13 12 12 11 11 10 10 9 9
3 2 1 3 6 7 7 7 6 4 7 12 19 23 25 25 25 26 26 29 32 32 31 30 30 29 26 23 21 21 19 18 18 18 19 22 23 24 24 24 24 24 24 24 23 22 21 20 19 18 18 19 19 19 18 18 19 19 19 18 18 18 17 18 18 17 17 17 16 16 16 16 15 15 15 14 14 13 13 12 11 10 9 9 8 8
5 5 4 3 4 6 6 8 8 4 4 10 16 20 26 31 34 34 33 34 36 35 31 28 28 26 24 22 22 22 21 21 20 19 20 23 25 26 25 25 25 25 25 24 23 22 20 19 18 18 19 19 20 20 20 21 21 21 20 19 18 17 16 16 17 16 16 16 16 15 15 15 15 15 14 13 13 12 11 10 10 9 8 7 6 6
8 8 8 6 7 9 10 13 14 10 8 13 15 14 18 24 30 35 36 35 33 32 29 27 25 24 24 23 23 22 21 20 20 21 23 24 25 25 25 25 25 25 24 24 23 22 21 20 19 19 20 22 23 23 23 22 22 21 19 18 17 16 15 14 14 15 15 15 14 14 14 13 13 13 12 12 11 10 9 8 8 7 6 5 5 5
Wind_Direction
100 108 181 210 205 199 200 170 144 147 119 114 119 104 144 193 269 253 252 299 298 187 260 245 250 270 271 269 269 273 277 270 266 268 268 269 269 269 269 270 269 268 268 269 269 266 261 257 254 252 251 251 251 251 250 249 247 246 244 243 243 242 240 238 236 233 230 223 216 216 218 215 213 223 223 215 219 218 212 214 219 225 232 227 213 209
89 155 231 225 195 184 176 138 117 109 88 91 116 105 204 211 255 251 234 310 346 181 269 292 285 273 268 271 272 268 263 258 258 259 264 267 268 269 269 269 270 269 270 270 269 268 265 262 258 255 252 251 251 251 251 249 247 246 244 242 242 241 240 238 235 231 227 226 225 221 217 214 215 224 223 217 218 212 208 216 226 231 235 221 202 207
61 224 248 193 142 112 91 111 112 107 91 81 115 119 273 245 269 283 307 331 16 179 271 321 298 271 271 276 274 265 250 254 258 257 262 265 267 268 268 269 271 272 273 271 269 268 266 265 262 258 256 254 254 252 251 249 248 246 243 242 241 240 239 237 232 228 225 224 222 219 220 218 216 217 220 219 214 212 221 232 239 244 239 222 209 215
167 250 258 170 140 104 71 90 100 100 97 99 134 140 242 254 283 283 295 326 351 191 269 312 300 275 273 276 273 267 255 259 263 260 262 263 262 265 267 269 271 273 275 276 274 271 268 266 263 260 258 257 254 252 250 248 247 246 243 242 240 237 236 234 230 225 223 222 216 218 222 217 216 220 220 220 221 226 232 231 236 245 232 218 218 223
220 242 192 126 126 109 103 116 120 129 202 256 182 170 206 226 213 234 287 324 326 343 339 307 306 288 275 271 270 279 273 265 265 263 263 263 262 265 267 268 269 271 274 277 278 277 274 271 268 264 260 257 255 253 253 251 249 247 244 241 239 236 233 231 230 223 220 220 212 210 213 214 218 220 216 219 225 226 226 226 233 238 226 217 220 226
250 216 144 108 78 98 113 146 176 160 180 285 233 203 208 208 203 223 352 5 355 336 326 357 289 282 308 285 260 284 303 276 272 269 267 269 269 267 267 269 270 272 274 277 279 279 277 275 272 266 259 256 255 255 255 252 249 246 243 240 238 235 232 231 229 223 220 219 214 211 213 217 218 215 216 220 222 220 223 228 232 234 229 224 225 224
236 179 136 123 123 118 113 176 221 170 136 299 251 209 204 175 156 174 95 40 293 274 285 86 213 270 311 291 267 276 284 278 284 279 268 268 269 266 267 269 272 274 277 279 280 277 275 273 269 266 263 259 256 255 254 251 247 243 242 240 237 234 232 231 230 225 218 216 219 220 222 225 222 220 223 223 219 220 228 233 237 236 228 225 223 212
168 150 108 118 120 119 135 203 223 162 132 246 248 158 158 154 168 181 151 178 234 272 290 123 152 272 291 274 271 285 285 286 288 278 268 265 266 267 268 271 275 279 281 280 277 274 272 271 268 267 266 264 260 254 251 250 247 244 243 241 238 235 233 231 229 227 221 217 218 221 223 223 223 226 227 221 217 224 234 238 238 231 221 220 215 200
154 176 189 160 132 152 183 218 194 155 134 250 208 122 135 149 155 139 127 174 306 355 297 193 144 264 273 272 287 290 280 286 279 273 270 268 271 275 275 277 282 282 277 272 272 279 280 276 271 268 264 261 257 252 250 250 249 245 242 240 237 234 233 231 228 226 224 221 219 219 220 219 222 225 222 219 222 231 236 235 230 221 215 214 207 197
93 186 196 159 149 195 202 291 184 163 153 177 140 99 84 82 83 90 110 121 60 333 262 189 166 221 272 281 296 263 253 262 266 272 270 271 278 284 289 292 288 273 262 264 292 310 300 290 277 263 257 252 248 248 248 248 247 244 240 237 235 234 233 230 228 225 223 221 219 218 220 223 225 222 218 220 225 228 228 226 223 217 213 209 202 199
338 74 175 163 169 169 131 65 45 114 134 138 120 78 62 42 45 59 53 83 72 289 249 191 189 183 272 275 246 229 226 211 234 266 272 274 277 279 290 299 280 256 258 281 303 308 301 294 282 266 258 253 247 245 244 243 243 242 239 237 235 234 232 229 228 226 222 220 218 217 220 224 225 221 220 225 225 223 223 225 223 217 211 206 203 203
340 92 231 195 157 126 105 68 38 70 120 122 95 89 79 354 11 32 349 52 116 251 249 218 207 157 237 257 243 246 252 218 212 246 263 274 275 275 282 283 266 261 269 283 294 297 293 286 281 275 269 260 251 246 243 241 240 239 238 236 234 234 232 229 228 226 223 220 217 216 218 221 222 222 228 232 228 225 227 230 226 216 209 207 207 207
262 232 258 146 164 154 120 77 44 26 64 98 98 111 100 336 355 348 295 132 221 245 224 195 208 200 241 260 270 265 263 249 227 234 248 259 269 274 278 276 273 273 277 285 291 293 293 289 283 279 276 268 259 253 248 243 240 237 236 234 233 232 232 230 229 226 224 221 218 217 217 220 224 226 232 234 227 224 229 234 227 215 210 210 210 210
268 294 269 136 206 193 166 140 149 215 190 159 147 141 138 138 176 250 257 262 267 262 212 161 160 258 266 272 254 248 253 253 244 246 253 258 264 269 273 275 277 277 279 286 292 296 298 294 289 282 277 272 265 259 252 247 243 239 236 234 232 231 231 230 229 226 224 223 221 217 218 222 224 226 231 229 222 223 231 236 228 217 215 215 213 214
216 283 209 177 190 184 185 187 162 142 157 184 162 139 158 165 176 213 216 210 252 281 274 202 179 198 211 258 246 241 258 264 259 255 256 260 262 265 270 272 273 274 280 288 294 298 299 295 290 283 278 273 267 260 254 249 245 241 237 235 232 231 230 230 229 226 224 226 223 218 219 221 223 227 227 221 220 230 239 239 229 221 221 220 216 220
200 261 240 237 161 167 180 191 131 112 136 212 115 118 195 193 154 156 195 179 186 316 304 225 222 212 206 275 272 254 267 271 264 261 260 260 260 263 266 267 269 277 286 293 297 303 301 293 287 282 279 274 266 261 256 251 248 244 241 237 235 233 232 230 230 228 226 228 225 220 220 220 224 226 218 215 225 239 242 238 230 223 225 224 219 223
171 267 286 355 77 171 181 179 139 142 179 163 139 179 212 170 117 115 229 91 85 261 277 227 248 276 311 287 268 253 265 273 272 270 261 257 259 262 260 259 267 281 290 297 306 317 309 293 284 278 277 275 269 265 261 257 254 250 246 242 237 234 232 230 230 229 227 228 224 222 221 221 223 221 216 221 235 242 237 230 226 224 225 225 223 223
163 254 297 50 159 242 257 106 88 61 123 130 187 202 168 108 97 111 203 351 44 244 270 266 250 274 296 276 277 263 259 265 267 262 257 260 263 259 255 258 268 278 287 309 333 357 357 172 252 261 265 270 270 269 266 261 257 253 248 246 241 237 234 232 231 229 227 227 224 222 221 220 220 220 224 231 236 236 231 223 222 225 223 223 225 222
159 233 297 26 185 266 17 114 98 10 76 130 191 180 120 154 194 114 167 199 221 242 272 290 282 263 219 235 256 217 228 241 247 251 259 264 258 253 255 260 266 269 276 70 85 93 102 109 112 256 260 267 263 264 264 258 254 250 247 247 244 241 238 234 232 229 227 227 224 221 220 220 223 226 229 229 227 229 228 221 222 227 225 223 223 219
140 198 272 320 254 286 41 156 190 202 44 59 86 123 105 163 180 171 158 173 196 217 251 301 314 270 216 203 198 205 216 221 229 245 254 249 249 251 253 254 253 239 137 102 95 88 91 102 89 46 334 285 268 262 261 257 256 252 247 246 243 241 239 234 231 230 228 228 225 221 220 221 226 228 229 229 227 228 227 224 226 227 226 226 223 219
106 202 238 320 330 194 176 212 197 179 164 149 162 176 191 157 124 186 182 129 147 170 204 260 286 268 239 184 187 208 219 212 210 222 235 243 245 241 234 228 219 196 127 97 80 61 64 92 96 81 350 312 290 279 273 266 263 256 248 246 244 242 240 236 232 230 229 228 225 222 221 222 225 225 227 232 231 229 227 225 226 226 226 227 225 220
171 192 184 159 232 203 215 245 207 187 181 179 186 194 196 180 152 189 232 222 120 151 182 173 259 271 254 178 193 208 215 214 215 220 229 242 235 214 210 211 194 174 141 117 80 331 319 313 305 267 274 300 300 295 290 281 274 265 255 249 245 243 242 239 235 232 230 228 225 223 222 223 224 223 225 231 230 230 228 222 223 227 228 227 226 222
165 130 147 192 213 214 238 305 206 211 199 191 203 199 194 190 180 184 207 215 157 183 176 115 254 270 259 178 205 220 222 227 230 228 229 237 228 201 202 206 182 161 156 150 177 305 302 297 296 296 297 298 295 292 289 288 287 279 268 256 248 244 243 242 239 235 232 230 227 224 222 223 223 223 227 231 229 229 230 223 221 228 231 228 226 223
144 128 194 231 267 288 311 350 31 52 126 212 239 174 157 200 190 164 179 188 167 190 181 114 247 261 270 209 244 258 257 250 240 230 229 233 226 208 209 207 179 163 166 164 321 313 305 297 295 300 306 304 296 287 283 288 289 284 276 265 254 247 244 243 241 237 233 232 229 226 224 222 222 225 229 231 228 227 229 226 224 228 231 228 227 224
167 188 202 213 276 301 312 312 290 343 123 218 233 186 188 197 160 113 138 167 189 215 197 188 243 254 283 346 289 271 273 269 252 239 240 235 221 217 221 210 187 178 179 246 295 298 298 296 296 298 300 301 298 289 284 286 286 282 277 271 263 253 246 243 242 239 235 233 231 228 225 224 224 227 230 229 227 227 229 228 226 229 231 229 227 224
172 195 187 191 226 232 235 239 219 200 165 209 236 207 201 192 170 174 207 176 221 229 202 196 243 254 292 358 283 265 292 289 267 248 242 231 221 226 227 209 199 197 211 259 277 290 294 295 299 300 299 300 298 292 288 287 288 284 277 272 266 257 249 244 242 241 238 235 232 229 228 227 227 230 230 228 227 227 229 229 228 231 232 230 228 225
150 261 203 198 216 221 235 243 186 130 145 196 223 209 198 198 188 190 211 205 221 234 226 223 237 251 265 258 240 252 248 256 261 247 233 226 222 230 233 219 211 218 233 253 269 285 292 298 303 303 301 301 298 292 288 288 289 284 276 271 267 259 252 246 243 241 239 237 235 232 230 229 230 232 231 230 229 229 230 231 232 233 234 231 229 226
104 258 223 221 228 230 246 248 191 143 178 202 210 204 197 199 191 191 215 223 221 228 241 236 230 245 258 244 217 233 234 231 247 247 236 226 218 228 241 236 228 237 246 252 263 275 284 293 301 303 300 298 296 292 289 289 289 283 276 270 266 261 255 248 244 242 240 238 237 236 233 231 232 234 233 232 232 232 231 232 233 235 235 232 229 227
138 231 228 232 238 240 255 256 204 173 208 207 204 207 200 193 191 199 217 225 223 220 240 246 235 235 250 248 226 220 223 223 233 238 235 229 226 239 251 247 246 255 254 252 258 266 272 283 293 297 293 291 291 290 289 289 288 284 277 270 265 261 257 251 246 243 241 239 239 239 237 234 233 233 234 234 234 234 234 233 234 236 235 233 230 227
158 226 227 223 237 244 253 256 224 192 223 237 215 212 205 197 197 206 216 224 226 225 237 250 249 245 249 249 231 223 228 232 239 243 238 231 235 247 257 261 265 264 258 256 260 266 271 278 285 286 285 285 285 285 287 287 288 286 279 269 265 261 258 252 247 244 242 241 240 239 238 237 235 232 233 234 234 234 234 235 236 237 235 233 230 227
173 226 223 202 230 248 248 252 240 199 206 236 233 217 215 214 211 214 219 222 226 231 237 244 253 257 255 240 212 223 227 229 237 243 240 237 240 248 259 264 265 262 258 257 259 266 274 278 277 276 278 280 280 280 284 285 286 285 277 268 262 259 257 253 249 246 243 242 241 239 238 238 236 234 233 233 233 233 234 236 238 238 235 232 229 226
164 227 218 166 220 243 240 245 243 219 211 244 249 234 223 221 219 219 220 220 219 224 233 240 248 256 253 200 193 222 217 214 224 227 232 238 240 245 252 255 256 257 257 257 261 269 275 275 273 273 273 274 275 276 279 283 284 283 274 263 257 255 254 252 249 246 244 243 241 239 238 238 236 235 235 234 232 232 234 237 238 236 235 232 229 226
165 183 209 192 214 242 244 242 233 218 225 242 241 236 231 226 223 225 230 230 224 216 222 228 233 246 246 183 206 234 210 203 221 220 225 234 237 241 247 249 253 256 258 261 265 269 272 273 274 273 269 268 269 272 275 278 281 278 266 252 247 248 249 250 248 245 243 242 241 240 239 238 236 235 236 236 235 232 233 236 237 236 235 234 231 228
185 193 212 203 203 245 249 234 165 189 225 233 232 234 235 230 221 223 230 231 225 215 223 232 238 248 248 218 223 239 223 226 236 232 231 234 237 241 247 251 255 258 259 262 264 268 273 276 275 270 265 264 264 266 270 272 272 265 251 242 240 240 244 247 247 245 242 241 241 240 240 239 237 236 236 236 236 234 233 235 237 236 234 233 232 230
194 204 210 202 215 240 234 159 179 215 225 240 251 238 232 226 220 223 232 235 228 218 225 238 245 247 245 236 235 241 240 242 245 242 237 236 240 246 251 255 257 258 259 262 268 273 277 275 271 266 262 260 260 261 264 265 261 253 246 243 239 237 242 246 246 244 242 241 241 241 240 239 238 237 236 236 236 235 235 237 238 237 235 233 232 231
190 201 206 201 213 225 200 192 221 239 257 291 285 263 224 223 217 219 238 244 233 218 217 229 238 242 245 245 244 248 253 256 258 254 246 241 244 249 252 255 257 260 265 271 274 275 274 269 266 263 258 257 257 258 260 259 256 252 248 242 236 234 237 240 241 241 240 240 241 241 242 242 240 238 237 237 238 237 236 237 238 238 237 235 234 232
192 194 202 209 204 207 224 226 238 274 294 274 259 243 189 187 192 190 224 245 234 218 216 224 234 240 245 247 249 253 258 269 273 263 250 246 250 252 254 258 263 266 270 271 270 267 265 264 263 260 257 255 256 257 258 257 255 252 244 236 230 227 227 229 232 234 234 236 238 239 240 241 241 239 237 237 239 240 241 241 240 240 239 237 236 235
201 196 191 207 206 197 223 238 241 250 251 245 248 239 172 177 189 178 202 246 242 220 214 219 231 238 240 246 249 250 250 266 273 257 240 253 258 256 257 260 261 261 260 257 256 256 257 259 259 258 256 253 253 254 252 250 248 241 231 224 217 214 215 215 215 217 218 221 224 228 233 236 238 239 238 238 239 241 244 245 245 244 243 242 242 241
211 209 204 214 214 198 217 233 227 228 238 241 251 253 173 175 171 136 181 245 254 227 209 209 224 234 235 239 240 231 203 238 260 254 247 259 259 252 251 252 248 244 241 240 247 252 255 259 258 254 252 249 247 244 238 234 228 217 208 200 193 193 193 189 189 191 194 200 206 214 222 227 232 235 236 237 238 240 245 248 249 249 247 247 248 248
209 212 215 221 222 218 225 233 230 239 246 236 253 264 177 163 144 123 211 242 252 206 188 189 204 224 233 234 229 207 184 221 249 265 258 251 249 243 242 239 233 233 235 238 246 250 253 255 247 239 237 232 228 223 213 206 195 182 174 169 166 165 161 159 160 161 166 174 181 190 200 207 215 222 225 231 235 239 245 248 250 250 249 248 248 246
203 206 211 217 224 225 226 233 242 246 237 232 215 160 154 143 136 175 225 232 192 171 182 186 197 218 229 227 206 195 220 230 240 257 253 238 236 234 231 230 235 239 239 238 239 239 235 227 213 205 201 194 190 184 175 169 161 154 151 149 147 146 145 145 147 148 149 152 155 160 166 173 181 192 199 210 220 228 235 237 237 236 234 232 233 232
192 199 206 211 221 224 226 236 246 249 236 204 143 143 149 147 180 219 217 171 161 185 189 191 202 218 227 222 209 217 231 236 238 243 243 240 238 233 234 239 239 234 227 220 212 204 200 196 187 181 175 164 158 156 151 147 146 144 143 142 140 140 141 141 141 142 142 142 144 146 148 152 158 164 171 181 190 198 204 207 206 207 210 216 223 227
184 187 198 200 206 216 229 227 226 252 223 146 127 123 165 195 213 189 176 175 184 191 196 200 210 221 226 224 226 230 233 236 237 236 236 239 241 240 239 234 220 209 204 196 186 181 181 179 172 165 160 152 148 145 143 143 144 143 141 140 140 140 140 139 139 139 139 140 140 142 144 147 152 157 162 168 173 179 184 187 191 196 203 211 218 223
194 189 191 194 190 198 221 220 209 236 176 160 156 171 209 209 212 185 180 193 191 188 193 200 213 227 230 231 234 231 229 232 234 232 230 232 234 233 225 212 199 191 185 179 175 171 170 170 165 157 152 148 144 141 141 142 145 145 144 143 143 142 142 141 140 140 141 142 143 145 147 150 153 156 160 164 168 173 176 179 186 194 200 208 216 221
201 196 195 204 201 200 221 225 208 207 192 189 196 209 208 210 217 218 201 203 206 203 202 205 223 243 241 237 233 229 228 228 226 225 225 223 222 216 206 196 188 182 176 173 170 165 165 167 164 158 154 149 145 144 144 145 148 150 149 148 148 147 146 145 145 146 147 148 149 150 152 154 157 161 164 167 172 176 179 184 191 197 203 210 216 221
217 210 203 198 204 219 232 217 192 211 215 208 212 218 217 217 221 222 220 215 214 226 238 244 256 261 249 236 228 225 229 229 224 221 219 214 208 200 192 186 180 177 175 173 168 164 164 165 163 160 159 154 153 154 153 152 155 157 154 152 150 149 148 148 149 150 151 152 153 154 156 159 162 164 167 170 174 177 181 186 191 196 201 206 211 216
312 299 236 209 206 215 217 203 201 214 218 212 215 220 227 228 224 222 222 229 253 273 276 275 275 268 252 240 232 227 228 228 223 218 212 206 199 192 187 184 179 176 174 172 169 166 165 165 163 162 163 162 160 161 160 159 158 157 154 152 150 150 149 149 150 151 152 153 154 156 159 161 163 165 166 168 171 174 178 182 185 189 193 196 200 204
341 4 336 277 255 232 226 232 228 225 225 221 219 221 225 232 235 233 237 253 267 268 264 264 262 253 244 241 237 230 226 224 221 217 208 200 194 190 186 183 179 176 173 171 169 166 165 167 167 165 167 167 162 160 160 159 155 153 152 149 148 148 147 146 146 148 149 151 153 154 155 156 158 160 161 163 166 168 170 173 174 175 178 182 185 191
247 317 299 271 281 278 273 271 261 253 255 243 232 226 228 237 247 249 247 249 252 249 246 247 244 237 234 237 236 231 228 225 222 217 206 197 191 188 185 181 178 176 172 169 168 167 168 171 170 168 168 165 159 156 156 154 150 148 146 144 143 144 145 145 145 146 147 148 149 149 151 152 153 154 156 158 159 159 160 163 164 166 173 181 186 194
208 232 206 208 272 267 253 251 243 234 262 255 244 240 241 242 245 248 248 247 245 242 240 238 232 225 225 228 230 230 230 226 219 209 201 196 190 186 183 180 177 175 172 170 168 166 168 172 171 169 167 161 154 152 150 147 146 144 143 143 143 143 145 146 146 145 145 145 146 147 147 148 149 150 152 154 156 158 159 162 167 172 182 194 202 213
203 223 208 198 235 245 245 246 237 226 245 255 250 252 255 251 246 246 247 248 246 242 238 234 228 222 220 221 222 224 225 222 214 203 195 192 189 186 184 183 180 178 175 173 170 167 167 168 167 166 162 155 149 147 146 146 146 145 145 147 144 143 145 146 146 147 146 144 146 147 147 149 151 153 155 158 161 165 167 173 181 188 198 215 229 244